Petersburg, AK

7:36 PM AKDT on September 28, 2016 (GMT -0800)
Johnson Petersburg

Weather History for PAPG - January, 2013

Change the Weather History Date:

Monday, January 28, 2013

  Actual Average Record
Temperature  
Mean Temperature 26 °F -  
Max Temperature 33 °F 34 °F 49 °F (1992)
Min Temperature 19 °F 26 °F 0 °F (2008)
Degree Days  
Heating Degree Days 39    
Moisture  
Dew Point 16 °F    
Average Humidity 74    
Maximum Humidity 87    
Minimum Humidity 63    
Precipitation  
Precipitation 0.00 in - - ()
Sea Level Pressure  
Sea Level Pressure 29.97 in    
Wind  
Wind Speed 6 mph (West)    
Max Wind Speed 18 mph    
Max Gust Speed 25 mph    
Visibility 10 miles    
Events Snow    
Averages and records for this station are not official NWS values.
T = Trace of Precipitation, MM = Missing Value Source: NWS Daily Summary

Daily Weather History Graph

Daily Weather History Graph

Search for Another Location

Airport or City:

Trip Planner

Search our weather history database for the weather conditions in past years. The results will help you decide how hot, cold, wet, or windy it might be!

Date:

Astronomy

Jan. 28, 2013 Rise Set
Actual Time 7:56 AM AKST 4:13 PM AKST
Civil Twilight 7:13 AM AKST 4:56 PM AKST
Nautical Twilight 6:27 AM AKST 5:43 PM AKST
Astronomical Twilight 5:42 AM AKST 6:27 PM AKST
Moon 6:51 PM AKST (1/28) 7:55 AM AKST (1/28)
Length of Visible Light 9h 42m
Length of Day
8h 16m
Full, 97% of the Moon is Illuminated
Jan 28
Full
Feb 3
Last Quarter
Feb 9
New
Feb 17
First Quarter
Feb 25
Full

Hourly Weather History & Observations

Time (AKST) Temp. Windchill Dew Point Humidity Pressure Visibility Wind Dir Wind Speed Gust Speed Precip Events Conditions
12:36 AM 32.0 °F - 26.6 °F 80% 29.76 in 10.0 mi Calm Calm - N/A   Unknown
12:56 AM 32.0 °F - 26.6 °F 80% 29.76 in 10.0 mi Calm Calm - N/A   Overcast
1:16 AM 33.8 °F 29.6 °F 26.6 °F 75% 29.76 in 10.0 mi SSE 4.6 mph - N/A   Overcast
1:36 AM 33.8 °F - 26.6 °F 75% 29.76 in 10.0 mi Calm Calm - N/A   Overcast
1:56 AM 33.8 °F 29.6 °F 26.6 °F 75% 29.75 in 10.0 mi North 4.6 mph - N/A   Overcast
2:16 AM 32.0 °F - 26.6 °F 80% 29.75 in 10.0 mi Calm Calm - N/A   Overcast
2:36 AM 33.8 °F 29.6 °F 28.4 °F 81% 29.75 in 10.0 mi SSW 4.6 mph - N/A   Overcast
2:56 AM 33.8 °F - 26.6 °F 75% 29.74 in 10.0 mi Calm Calm - N/A   Overcast
3:16 AM 33.8 °F - 28.4 °F 81% 29.74 in 10.0 mi Calm Calm - N/A   Overcast
3:36 AM 33.8 °F - 26.6 °F 75% 29.74 in 10.0 mi Calm Calm - N/A   Overcast
3:56 AM 33.8 °F - 26.6 °F 75% 29.73 in 10.0 mi Calm Calm - N/A   Overcast
6:49 AM 32.0 °F 23.0 °F 28.4 °F 87% 29.75 in 3.0 mi SW 11.5 mph - N/A Snow Light Snow
7:50 AM 28.4 °F 18.5 °F 23.0 °F 80% 29.78 in 10.0 mi WSW 11.5 mph - N/A Snow Light Snow Showers
8:36 AM 24.8 °F 11.1 °F 17.6 °F 74% 29.81 in 10.0 mi WNW 18.4 mph 24.2 mph N/A   Overcast
8:56 AM 24.8 °F 13.4 °F 17.6 °F 74% 29.82 in 10.0 mi WNW 12.7 mph 18.4 mph N/A   Overcast
9:16 AM 24.8 °F 13.4 °F 17.6 °F 74% 29.83 in 10.0 mi WNW 12.7 mph 19.6 mph N/A   Overcast
9:36 AM 23.0 °F 11.7 °F 15.8 °F 74% 29.85 in 10.0 mi West 11.5 mph 24.2 mph N/A   Overcast
9:56 AM 23.0 °F 10.6 °F 15.8 °F 74% 29.86 in 10.0 mi West 13.8 mph 19.6 mph N/A   Overcast
10:16 AM 23.0 °F 10.1 °F 15.8 °F 74% 29.87 in 10.0 mi WNW 15.0 mph - N/A   Overcast
10:36 AM 21.2 °F 8.9 °F 15.8 °F 80% 29.88 in 10.0 mi WNW 12.7 mph 23.0 mph N/A   Overcast
10:56 AM 21.2 °F 8.3 °F 15.8 °F 80% 29.89 in 10.0 mi WNW 13.8 mph 18.4 mph N/A   Mostly Cloudy
11:16 AM 21.2 °F 8.3 °F 14.0 °F 74% 29.91 in 10.0 mi WNW 13.8 mph 23.0 mph N/A   Mostly Cloudy
11:36 AM 21.2 °F 7.8 °F 14.0 °F 74% 29.92 in 10.0 mi WNW 15.0 mph 24.2 mph N/A   Mostly Cloudy
11:56 AM 21.2 °F 8.3 °F 12.2 °F 68% 29.93 in 10.0 mi WNW 13.8 mph 25.3 mph N/A   Overcast
12:16 PM 21.2 °F 6.4 °F 12.2 °F 68% 29.94 in 10.0 mi WNW 18.4 mph 24.2 mph N/A   Overcast
12:36 PM 21.2 °F 7.8 °F 12.2 °F 68% 29.95 in 10.0 mi West 15.0 mph 23.0 mph N/A   Overcast
12:56 PM 21.2 °F 8.3 °F 12.2 °F 68% 29.95 in 10.0 mi WNW 13.8 mph 24.2 mph N/A   Overcast
1:16 PM 19.4 °F 5.5 °F 12.2 °F 74% 29.96 in 10.0 mi WNW 15.0 mph 21.9 mph N/A   Overcast
1:36 PM 19.4 °F 6.6 °F 12.2 °F 74% 29.98 in 10.0 mi WNW 12.7 mph - N/A   Overcast
1:56 PM 19.4 °F 6.6 °F 12.2 °F 74% 29.98 in 10.0 mi WNW 12.7 mph 20.7 mph N/A   Overcast
2:16 PM 19.4 °F 6.0 °F 12.2 °F 74% 29.99 in 10.0 mi West 13.8 mph 20.7 mph N/A   Overcast
2:36 PM 19.4 °F 7.9 °F 12.2 °F 74% 30.01 in 10.0 mi WNW 10.4 mph 19.6 mph N/A   Overcast
2:56 PM 19.4 °F 6.6 °F 12.2 °F 74% 30.02 in 10.0 mi WNW 12.7 mph 18.4 mph N/A   Mostly Cloudy
3:16 PM 19.4 °F 7.9 °F 12.2 °F 74% 30.03 in 10.0 mi WNW 10.4 mph 20.7 mph N/A   Mostly Cloudy
3:36 PM 19.4 °F 6.0 °F 12.2 °F 74% 30.04 in 10.0 mi WNW 13.8 mph 20.7 mph N/A   Mostly Cloudy
3:56 PM 19.4 °F 8.6 °F 12.2 °F 74% 30.05 in 10.0 mi WNW 9.2 mph - N/A   Overcast
4:16 PM 19.4 °F 8.6 °F 12.2 °F 74% 30.07 in 10.0 mi WNW 9.2 mph - N/A   Overcast
4:36 PM 19.4 °F 7.9 °F 12.2 °F 74% 30.07 in 10.0 mi WNW 10.4 mph - N/A   Overcast
4:56 PM 19.4 °F 8.6 °F 12.2 °F 74% 30.08 in 10.0 mi West 9.2 mph - N/A   Overcast
5:16 PM 19.4 °F 9.5 °F 12.2 °F 74% 30.09 in 10.0 mi WNW 8.1 mph - N/A   Overcast
5:36 PM 19.4 °F 7.9 °F 12.2 °F 74% 30.10 in 10.0 mi West 10.4 mph - N/A   Overcast
5:56 PM 19.4 °F 10.4 °F 12.2 °F 74% 30.10 in 10.0 mi West 6.9 mph - N/A   Overcast
6:16 PM 19.4 °F 9.5 °F 12.2 °F 74% 30.11 in 10.0 mi West 8.1 mph - N/A   Overcast
6:36 PM 19.4 °F 11.5 °F 12.2 °F 74% 30.11 in 10.0 mi WSW 5.8 mph - N/A   Overcast
6:56 PM 19.4 °F 14.3 °F 12.2 °F 74% 30.11 in 10.0 mi SW 3.5 mph - N/A   Overcast
7:16 PM 19.4 °F 10.4 °F 12.2 °F 74% 30.13 in 10.0 mi SW 6.9 mph - N/A   Overcast
7:36 PM 19.4 °F 12.8 °F 12.2 °F 74% 30.13 in 10.0 mi WSW 4.6 mph - N/A   Overcast
7:56 PM 19.4 °F 11.5 °F 12.2 °F 74% 30.15 in 10.0 mi SSW 5.8 mph - N/A   Overcast
8:16 PM 19.4 °F 11.5 °F 12.2 °F 74% 30.15 in 10.0 mi SSW 5.8 mph - N/A   Overcast
8:36 PM 19.4 °F 12.8 °F 12.2 °F 74% 30.16 in 10.0 mi South 4.6 mph - N/A   Overcast
8:56 PM 19.4 °F - 14.0 °F 80% 30.15 in 10.0 mi Calm Calm - N/A   Overcast
9:16 PM 21.2 °F - 14.0 °F 74% 30.14 in 10.0 mi Calm Calm - N/A   Overcast
9:36 PM 21.2 °F 16.4 °F 12.2 °F 68% 30.15 in 10.0 mi ESE 3.5 mph - N/A   Overcast
9:56 PM 21.2 °F 16.4 °F 12.2 °F 68% 30.16 in 10.0 mi SW 3.5 mph - N/A   Overcast
10:16 PM 21.2 °F 14.9 °F 14.0 °F 74% 30.16 in 10.0 mi SSW 4.6 mph - N/A   Overcast
10:36 PM 21.2 °F - 15.8 °F 80% 30.16 in 10.0 mi Calm Calm - N/A   Overcast
10:56 PM 21.2 °F 16.4 °F 14.0 °F 74% 30.17 in 10.0 mi SW 3.5 mph - N/A   Overcast
11:16 PM 21.2 °F 16.4 °F 12.2 °F 68% 30.17 in 10.0 mi ESE 3.5 mph - N/A   Overcast
11:36 PM 19.4 °F - 8.6 °F 63% 30.16 in 10.0 mi Calm Calm - N/A   Overcast
11:56 PM 19.4 °F 9.5 °F 10.4 °F 68% 30.16 in 10.0 mi South 8.1 mph - N/A   Overcast